This is the latest recevied weather packets stored in our database for station/object CE4ERM-13. If no packets are shown the sender has not sent any weather packets the latest 10 day(s).
| Time | Temp. | Humidity | Pressure | Rain* | Wind** | Luminosity | Snow |
|---|---|---|---|---|---|---|---|
| 1777430616 | 22.78° C | 45% | 1020.3 hPa | - | - | - | - |
| 1777430145 | 22.22° C | 41% | 1019.3 hPa | - | - | - | - |
| 1777430015 | 23.33° C | 43% | 1020.7 hPa | - | - | - | - |
| 1777429546 | 22.78° C | 40% | 1020.2 hPa | - | - | - | - |
| 1777428945 | 22.78° C | 41% | 1019.7 hPa | - | - | - | - |
| 1777428345 | 22.78° C | 41% | 1019.1 hPa | - | - | - | - |
| 1777427614 | 24.44° C | 42% | 1018.3 hPa | - | - | - | - |
| 1777427013 | 23.89° C | 43% | 1019 hPa | - | - | - | - |
| 1777426544 | 23.33° C | 41% | 1019 hPa | - | - | - | - |
| 1777426413 | 23.89° C | 42% | 1019.5 hPa | - | - | - | - |
| 1777425950 | 23.33° C | 41% | 1019.5 hPa | - | - | - | - |
| 1777425813 | 22.78° C | 44% | 1018.8 hPa | - | - | - | - |
| 1777425212 | 23.33° C | 42% | 1020 hPa | - | - | - | - |
| 1777424744 | 23.33° C | 41% | 1018 hPa | - | - | - | - |
| 1777424144 | 23.33° C | 42% | 1021.6 hPa | - | - | - | - |
| 1777424011 | 26.11° C | 37% | 1018.1 hPa | - | - | - | - |
| 1777423411 | 25° C | 39% | 1018.1 hPa | - | - | - | - |
| 1777422811 | 25.56° C | 38% | 1018 hPa | - | - | - | - |
| 1777422211 | 23.89° C | 41% | 1019.3 hPa | - | - | - | - |
| 1777421692 | 23.89° C | 39% | 1019.4 hPa | - | - | - | - |
| 1777421610 | 23.33° C | 43% | 1019.1 hPa | - | - | - | - |
| 1777421092 | 23.89° C | 38% | 1018.5 hPa | - | - | - | - |
| 1777420491 | 23.89° C | 38% | 1019 hPa | - | - | - | - |
| 1777419891 | 24.44° C | 37% | 1019.2 hPa | - | - | - | - |
| 1777418691 | 24.44° C | 38% | 1018.8 hPa | - | - | - | - |
* Rain since midnight (hover to see other rain measurements)
** Current wind speed in m/s (hover to see current wind gust speed)